Zurück zum Katalog

BREEZE-M DEB

LostHEO
NORAD 38614·DEBRIS·🇷🇺 Russia

Gestartet Mar 14, 2008 von Baikonur Cosmodrome

Loading…

Nächste Überflüge (nächste 24 Stunden)

TLE

VeraltetSource: Space-Track

Epoche: Sep 15, 2016, 02:44 UTC

1 38614U 08011BM  16259.11426498 -.00000070  00000-0  00000+0 0  9997
2 38614  49.2486 234.0728 6221886 157.7874 249.2927  3.02905563 58196

Verfolge BREEZE-M DEB in Echtzeit mit AllMySat

Download on the App Store